Location: Euclid Homes (historical)
(41.5844°N, 81.5389°W)
Time: 20:15:03
(UTC+00:00)

Daily predictions for brighter satellites

Satellite Brightness Start Highest point End
(mag) Time Altitude Azimuth Time Altitude Azimuth Time Altitude Azimuth
Cosmos 372 Rocket 3.9 22:22:25 10° NNW 22:27:35 77° ENE 22:32:45 10° SSE
USA 281 4.3 22:23:05 10° E 22:27:46 21° NE 22:32:28 10° N
NOSS 0 Rocket 4.1 22:21:48 10° S 22:27:53 59° ESE 22:34:01 10° NNE
NOAA 6 4.0 22:23:25 10° SSE 22:28:35 82° ENE 22:33:45 10° NNW
COSMOS 2428 3.1 22:24:30 10° SSW 22:30:13 70° WNW 22:35:58 10° NNE
Cosmos 2298 Rocket 4.2 22:27:42 10° N 22:32:54 52° ENE 22:38:04 10° SE
Cosmos 1818 4.0 22:28:43 10° NNW 22:33:51 40° NE 22:38:57 10° ESE
ISS -3.7 22:31:07 10° SW 22:34:28 77° SE 22:37:50 10° ENE
Cosmos 2150 Rocket 4.2 22:29:37 10° N 22:34:38 49° ENE 22:39:36 10° SE
ERS-2 3.2 22:36:27 10° NE 22:39:33 26° E 22:42:39 10° SSE
Cosmos 1939 Rocket 4.1 22:37:19 10° ESE 22:40:02 19° ENE 22:42:46 10° NNE
Cosmos 2327 Rocket 4.5 22:34:37 10° N 22:40:42 62° E 22:46:51 10° SSE
Cosmos 2278 Rocket 2.3 22:35:41 10° NNW 22:41:17 57° ENE 22:46:51 10° SE
Cosmos 2221 2.9 22:36:58 10° SSW 22:41:17 69° W 22:45:37 10° N
Cosmos 2074 Rocket 4.1 22:35:06 10° N 22:41:21 86° W 22:47:36 10° S
CZ-4B R/B 2.2 22:40:38 10° NE 22:43:19 27° E 22:46:01 10° SSE
CSL-04 DEB 4.4 22:42:13 10° NNE 22:46:19 72° ESE 22:50:28 10° S
Cosmos 1500 Rocket 3.5 22:42:10 10° N 22:46:34 84° E 22:50:59 10° S
NOSS 2-1 (C) 4.4 22:42:26 10° NNW 22:47:44 74° NE 22:55:14 10° SE
TELKOM 3 3.2 22:46:03 10° SW 22:48:54 65° SSE 22:50:44 16° ENE
Cosmos 1125 Rocket 3.7 22:46:41 10° N 22:51:43 49° ENE 22:56:46 10° SE
Radarsat Rocket 4.2 22:46:23 10° SSE 22:52:16 79° WSW 22:58:42 10° NNW
Cosmos 2184 Rocket 4.4 22:46:32 10° NNW 22:52:55 73° W 22:59:13 10° S
NOSS 2-1 (D) 4.4 22:47:51 10° NNW 22:53:12 80° NE 23:00:47 10° SE
ADEOS Rocket 4.3 22:48:11 10° N 22:55:38 59° WNW 23:03:12 10° SW
YAOGAN 1 4.2 22:55:22 14° ENE 22:55:41 14° ENE 22:57:58 10° NNE
Cosmos 2219 Rocket 3.6 22:54:05 10° SW 22:59:15 36° WNW 23:04:26 10° N
USA 215 3.3 22:54:28 10° NE 23:01:04 89° SE 23:07:37 10° SW
CZ-4B R/B 3.3 22:56:16 10° SSE 23:01:39 81° WSW 23:06:59 10° NNW
NOAA 12 4.2 22:56:56 10° SSE 23:02:16 85° WSW 23:07:38 10° NNW
Okean-O 3.9 22:59:17 10° ESE 23:02:29 20° ENE 23:05:43 10° NNE
AQUARIUS 4.2 22:59:25 10° SSE 23:03:55 86° W 23:08:26 10° NNW
Cosmos 1295 Rocket 4.4 22:59:01 10° N 23:05:11 77° E 23:11:24 10° SSE
SL-24 R/B - RUBIN 2 4.2 23:00:03 10° NNW 23:06:19 66° NE 23:11:50 10° SE
FengYun 1-2 T 4.2 23:00:48 10° SSE 23:06:21 74° ENE 23:11:52 10° N
H-2A R/B 4.1 23:02:55 10° S 23:07:02 39° W 23:11:04 10° NNW
Cosmos 2237 Rocket 2.2 23:01:42 10° SSW 23:07:19 90° WNW 23:12:59 10° NNE
COSMO-SKYMED 1 3.0 23:03:42 10° NNE 23:07:48 39° E 23:11:52 10° SSE
Cosmos 1743 Rocket 4.4 23:04:12 10° NNW 23:08:34 54° W 23:12:53 10° S
NOAA 11 4.1 23:03:56 10° SSE 23:09:19 73° ENE 23:14:45 10° N
Okean O Rocket 2.1 23:10:39 10° S 23:14:56 62° WSW 23:19:17 10° NNW
Cosmos 1933 3.8 23:12:18 10° SSE 23:16:03 39° E 23:19:06 14° NNE
SL-24 R/B 4.4 23:13:00 13° NNE 23:16:21 36° E 23:19:51 10° SSE
Cosmos 405 Rocket 3.9 23:12:58 10° NNW 23:16:43 46° W 23:20:30 10° SSW
USA 81 4.4 23:14:39 10° N 23:19:41 42° E 23:24:40 10° SSE
Sich 1 2.9 23:15:25 10° N 23:19:49 71° E 23:24:09 10° SSE
PSLV R/B 4.4 23:20:05 21° NE 23:22:18 38° E 23:26:04 10° SSE
Cosmos 2369 Rocket 3.9 23:19:49 10° NNE 23:22:06 14° NE 23:22:06 14° NE
Cosmos 1980 4.2 23:19:45 10° SW 23:25:21 61° WNW 23:31:00 10° NNE
H-2A R/B 3.0 23:25:30 25° E 23:26:21 26° ENE 23:30:37 10° NNE
Cosmos 1805 Rocket 4.0 23:24:25 10° NNW 23:28:51 67° W 23:33:14 10° S
Helios 1A Rocket 3.4 23:28:31 28° ESE 23:29:43 34° ENE 23:33:22 10° N
SKYMED 3 4.4 23:27:33 10° NNE 23:31:55 74° ESE 23:36:14 10° S
Cosmos 2218 Rocket 4.0 23:26:28 10° N 23:32:26 51° ENE 23:38:24 10° SSE
USA 267 3.4 23:27:58 19° ESE 23:32:31 54° NNE 23:38:50 10° NW
Cosmos 389 Rocket 2.7 23:30:10 10° SSW 23:33:35 66° W 23:36:46 12° N
Cosmos 1666 Rocket 3.5 23:30:36 10° N 23:34:58 65° E 23:39:22 10° SSE
Cosmos 1151 Rocket 3.1 23:30:52 10° S 23:35:02 53° E 23:37:28 23° NNE
Cosmos 773 Rocket 4.5 23:30:54 10° SSE 23:35:42 38° ESE 23:37:15 31° ENE
Cosmos 1782 4.2 23:33:24 10° SSE 23:35:11 22° SE 23:35:11 22° SE
Cosmos 1606 3.3 23:34:21 10° SSW 23:38:10 57° W 23:42:02 10° N
Cosmos 1328 Rocket 3.6 23:34:29 10° SSE 23:38:37 50° E 23:40:17 32° NE
Cosmos 783 Rocket 4.5 23:35:09 10° S 23:40:22 61° ESE 23:43:31 24° NNE
Cosmos 2366 rocket 3.9 23:38:29 10° N 23:44:38 62° E 23:50:42 10° SSE
SL-24 DEB 4.3 23:40:59 10° NNE 23:45:41 56° E 23:50:19 10° S
BREEZE-M DEB (TANK) 4.0 23:36:55 10° SW 23:47:13 46° SSE 23:48:27 37° ESE
Cosmos 2297 3.8 23:42:00 10° NNW 23:47:34 52° ENE 23:50:36 26° SE
BREEZE-M DEB (TANK) 3.4 23:45:45 10° W 23:47:24 27° NW 23:47:24 27° NW
Abrixas rocket 3.3 23:53:40 10° WNW 23:55:50 35° WSW 23:55:50 35° WSW
